This is the latest recevied weather packets stored in our database for station/object KI5RAB. If no packets are shown the sender has not sent any weather packets the latest 10 day(s).
| Time | Temp. | Humidity | Pressure | Rain* | Wind** | Luminosity | Snow |
|---|---|---|---|---|---|---|---|
| 1778196122 | 20.56° C | 62% | 1017.9 hPa | 0 mm | - | 79 W/m² | - |
| 1778195818 | 20.56° C | 62% | 1017.7 hPa | 0 mm | - | 82 W/m² | - |
| 1778195515 | 20.56° C | 61% | 1018.1 hPa | 0 mm | - | 93 W/m² | - |
| 1778195212 | 20.56° C | 62% | 1018.3 hPa | 0 mm | - | 102 W/m² | - |
| 1778194909 | 20.56° C | 62% | 1018.2 hPa | 0 mm | - | 88 W/m² | - |
| 1778194609 | 20.56° C | 62% | 1018 hPa | 0 mm | - | 108 W/m² | - |
| 1778194306 | 20.56° C | 62% | 1018.1 hPa | 0 mm | - | 104 W/m² | - |
| 1778194001 | 20.56° C | 62% | 1018.2 hPa | 0 mm | - | 167 W/m² | - |
| 1778193698 | 20.56° C | 62% | 1018.2 hPa | 0 mm | - | 187 W/m² | - |
| 1778193394 | 20.56° C | 62% | 1018.4 hPa | 0 mm | - | 155 W/m² | - |
| 1778193091 | 20.56° C | 63% | 1018.4 hPa | 0 mm | - | 165 W/m² | - |
| 1778192788 | 20.56° C | 63% | 1018.5 hPa | 0 mm | - | 165 W/m² | - |
| 1778192484 | 21.11° C | 63% | 1018.7 hPa | 0 mm | - | 136 W/m² | - |
| 1778192180 | 21.11° C | 62% | 1018.7 hPa | 0 mm | - | 151 W/m² | - |
| 1778191877 | 20.56° C | 61% | 1018.2 hPa | 0 mm | - | 196 W/m² | - |
| 1778191575 | 20.56° C | 62% | 1018.4 hPa | 0 mm | - | 220 W/m² | - |
| 1778191272 | 20.56° C | 63% | 1017.9 hPa | 0 mm | - | 154 W/m² | - |
| 1778190968 | 20.56° C | 64% | 1018.5 hPa | 0 mm | - | 119 W/m² | - |
| 1778190666 | 20.56° C | 64% | 1018.7 hPa | 0 mm | - | 75 W/m² | - |
| 1778190363 | 20.56° C | 64% | 1019 hPa | 0 mm | - | 41 W/m² | - |
| 1778190059 | 20.56° C | 64% | 1018.9 hPa | 0 mm | - | 63 W/m² | - |
| 1778189755 | 20.56° C | 64% | 1018.7 hPa | 0 mm | - | 68 W/m² | - |
| 1778189453 | 20.56° C | 65% | 1018.5 hPa | 0 mm | - | 101 W/m² | - |
| 1778189148 | 20.56° C | 65% | 1018.8 hPa | 0 mm | - | 74 W/m² | - |
| 1778188846 | 20.56° C | 66% | 1018.9 hPa | 0 mm | - | 71 W/m² | - |
* Rain latest hour (hover to see other rain measurements)
** Current wind speed in m/s (hover to see current wind gust speed)